www.pogodaiklimat.ru

Погода и климат >> Архив погоды >> Индия >> Орисса >> Чандбали


ПОГОДА в Чандбали

  • Прогноз погоды в Чандбали
  • Монитор погоды в Чандбали

АРХИВ ПОГОДЫ в Чандбали

Время (UTC), дата Ветер
(напр.,м/с)
 
Видим.   Явления Облачность Т
(С)
Тd
(С)
f
(%)
Тe
(С)
Тes
(С)
Комфортность P
(гПа)
Po
(гПа)
Тmin
(С)
Tmax
(С)
R
(мм)
R24
(мм)
S
(см)
18 19.05 Ю 1 4000 м 8/5 600 м
[Sc Ac trans]
+30.2 +27.7 87 +49 +49 опасность
перегрева
1008.2 1007.5
21 19.05 Ю 1 4000 м 6/4 600 м
[Sc Ac trans]
+29.8 +27.6 88 +48 +48 опасность
перегрева
1007.5 1006.8
00 20.05 штиль 0 4000 м 9/5 300 м
[Sc Ac trans]
+29.6 +27.4 88 +48 +48 опасность
перегрева
1006.8 1006.1
03 20.05 Ю 1 4000 м 8/5 600 м
[Sc Ac trans]
+31.6 +27.2 78 +50 +55 опасность
перегрева
1009.1 1008.4 +28.6
06 20.05 ЮЗ 1 4000 м ясно +36.6 +27.9 61 +57 +85 опасность
перегрева
1008.1 1007.4
09 20.05 Ю 3 4000 м ясно +37.0 +28.9 63 +60 +72 опасность
перегрева
1005.2 1004.5
12 20.05 Ю 3 4000 м ясно +33.4 +24.8 61 +47 +47 опасность
перегрева
1005.2 1004.5 +38.2
15 20.05 Ю 1 4000 м зарница 9/6 300 м
[Cb calv Ac trans]
+30.2 +24.5 72 +43 +43 опасность
перегрева
1007.4 1006.7
18 20.05 Ю 1 4000 м 3/0
[Ci fib]
+30.2 +27.2 84 +48 +48 опасность
перегрева
1006.8 1006.1
21 20.05 штиль 0 4000 м 3/1 600 м
[Sc Ci fib]
+29.8 +27.0 85 +47 +47 опасность
перегрева
1006.0 1005.3
00 21.05 штиль 0 4000 м мгла ясно +29.0 +27.3 91 +47 +47 опасность
перегрева
1006.5 1005.8
03 21.05 Ю 1 4000 м 5/4 600 м
[Sc Ac trans]
+32.0 +27.6 78 +52 +59 опасность
перегрева
1008.2 1007.5 +28.0
06 21.05 Ю 1 4000 м 1/1 600 м
[Sc Ac trans]
+37.0 +27.8 59 +56 +82 опасность
перегрева
1007.4 1006.7
09 21.05 Ю 3 4000 м 3/3 600 м
[Sc]
+38.2 +28.8 59 +60 +69 опасность
перегрева
1005.0 1004.3
12 21.05 Ю 3 4000 м ясно +34.4 +27.6 68 +54 +55 опасность
перегрева
1004.3 1003.6 +38.8
15 21.05 Ю 3 4000 м ясно +31.2 +27.6 81 +50 +50 опасность
перегрева
1006.3 1005.6
18 21.05 Ю 1 4000 м ясно +29.4 +27.5 90 +48 +48 опасность
перегрева
1006.7 1006.0
21 21.05 Ю 1 4000 м 4/1 600 м
[Sc Ac trans]
+29.0 +27.6 92 +47 +47 опасность
перегрева
1005.7 1005.0
00 22.05 ЮЗ 1 4000 м 9/5 600 м
[Sc Ac trans]
+29.0 +27.3 91 +47 +47 опасность
перегрева
1005.5 1004.8
03 22.05 штиль 0 4000 м ясно +33.4 +27.9 73 +54 +69 опасность
перегрева
1006.5 1005.8 +28.6
06 22.05 Ю 1 4000 м ясно +38.0 +28.6 59 +60 +88 опасность
перегрева
1006.1 1005.4
09 22.05 Ю 1 4000 м ясно +39.4 +28.1 53 +59 +75 опасность
перегрева
1003.4 1002.7
12 22.05 Ю 2 4000 м ясно +35.2 +27.3 64 +54 +55 опасность
перегрева
1003.0 1002.3 +41.1
15 22.05 Ю 3 4000 м ясно +31.2 +27.1 79 +49 +49 опасность
перегрева
1004.4 1003.7
18 22.05 Ю 2 4000 м 5/4 600 м
[Sc Ac trans]
+30.0 +27.2 85 +48 +48 опасность
перегрева
1005.8 1005.1
21 22.05 Ю 1 4000 м 6/5 600 м
[Sc Ac trans]
+29.6 +27.1 86 +47 +47 опасность
перегрева
1004.9 1004.2
00 23.05 Ю 2 4000 м 9/5 600 м
[Sc Ac trans]
+29.6 +27.4 88 +48 +48 опасность
перегрева
1005.3 1004.6
03 23.05 Ю 2 4000 м 9/4 600 м
[Sc Ac trans Ci fib]
+31.4 +27.8 81 +51 +55 опасность
перегрева
1007.5 1006.8 +29.0
06 23.05 Ю 2 4000 м ясно +36.0 +27.8 63 +56 +80 опасность
перегрева
1006.2 1005.5
09 23.05 Ю 3 4000 м ясно +38.0 +28.6 59 +60 +72 опасность
перегрева
1004.6 1003.9
12 23.05 Ю 4 4000 м 3/0
[Ac trans]
+33.8 +27.2 69 +53 +53 опасность
перегрева
1003.2 1002.5 +38.8
15 23.05 Ю 4 4000 м 3/1 600 м
[Sc Ac trans]
+30.6 +27.0 81 +48 +48 опасность
перегрева
1004.6 1003.9
18 23.05 Ю 2 4000 м 5/4 600 м
[Sc Ac trans]
+29.8 +27.0 85 +47 +47 опасность
перегрева
1005.5 1004.8
21 23.05 Ю 2 4000 м 6/4 600 м
[Sc Ac trans]
+29.4 +26.9 86 +46 +46 опасность
перегрева
1004.3 1003.6
00 24.05 Ю 1 4000 м 8/4 600 м
[Sc Ac trans Ci fib]
+29.2 +26.4 85 +45 +45 опасность
перегрева
1005.1 1004.4
03 24.05 Ю 2 4000 м {дождь} 5/3 600 м
[Sc Ac trans Ci fib]
+31.8 +26.5 74 +49 +56 опасность
перегрева
1006.5 1005.8 +28.5 0.3
06 24.05 Ю 3 4000 м {дождь} ясно +37.0 +26.2 54 +53 +73 опасность
перегрева
1005.4 1004.7
09 24.05 Ю 5 4000 м ясно +36.6 +28.5 63 +58 +66 опасность
перегрева
1003.3 1002.6
12 24.05 Ю 4 4000 м ясно +33.6 +25.8 64 +49 +50 опасность
перегрева
1001.5 1000.8 +37.8
15 24.05 Ю 3 4000 м ясно +31.0 +26.8 78 +48 +48 опасность
перегрева
1002.8 1002.1
18 24.05 Ю 2 4000 м ясно +30.2 +27.2 84 +48 +48 опасность
перегрева
1002.9 1002.2
21 24.05 Ю 1 4000 м 4/1 600 м
[Sc Ac trans]
+29.6 +26.7 84 +46 +46 опасность
перегрева
1002.1 1001.4
00 25.05 Ю 4 4000 м 4/3 600 м
[Sc Ac trans]
+29.4 +27.5 90 +48 +48 опасность
перегрева
1001.9 1001.2
03 25.05 Ю 2 4000 м 1/0
[Ac trans]
+33.2 +27.4 72 +52 +64 опасность
перегрева
1003.1 1002.4 +29.0
06 25.05 Ю 2 4000 м ясно +38.4 +27.8 55 +58 +82 опасность
перегрева
1002.1 1001.4
09 25.05 Ю 5 4000 м ясно +36.4 +28.9 66 +60 +67 опасность
перегрева
1000.3 999.6
12 25.05 Ю 4 4000 м 8/4 600 м
[Cb calv Ac trans]
+32.4 +27.5 75 +51 +52 опасность
перегрева
1000.5 999.8 +40.2
15 25.05 Ю 3 4000 м гроза, ливневой дождь 9/5 600 м
[Cb cap As op]
+29.4 +27.5 90 +48 +48 опасность
перегрева
1001.9 1001.2 0.7
18 25.05 штиль 0 4000 м {гроза, дождь} 8/4 600 м
[Sc Ac trans]
+28.0 +21.8 69 +36 +36 очень
душно
1003.9 1003.2 0.1
21 25.05 штиль 0 4000 м 6/4 600 м
[Sc Ac trans]
+27.4 +22.1 73 +36 +36 очень
душно
1001.1 1000.4 0.7
00 26.05 штиль 0 4000 м мгла 9/5 300 м
[Sc Ac trans]
+28.4 +26.4 89 +43 +44 опасность
перегрева
1003.0 1002.3 0.7
03 26.05 Ю 2 4000 м мгла 9/5 300 м
[Sc Ac trans]
+30.8 +28.3 87 +52 +55 опасность
перегрева
1005.0 1004.3 +26.6 0.7
06 26.05 ЮЗ 1 4000 м 8/3 600 м
[Sc Ac trans]
+35.0 +29.4 73 +60 +70 опасность
перегрева
1003.9 1003.2
09 26.05 Ю 1 4000 м 5/3 600 м
[Sc Ac trans]
+37.0 +28.9 63 +60 +69 опасность
перегрева
1001.7 1001.0
12 26.05 Ю 1 4000 м ясно +33.8 +28.7 75 +57 +58 опасность
перегрева
1001.5 1000.8 +37.7
15 26.05 Ю 2 4000 м ясно +31.0 +28.3 86 +52 +52 опасность
перегрева
1003.6 1002.9

 

Местоположение метеостанции Чандбали (Орисса, Индия): широта 20.78 долгота 86.73 высота над уровнем моря 6 м.

В архиве по умолчанию представлена погода в Чандбали за последнюю неделю. Архивные данные за месяц целиком и за предыдущие месяцы, начиная с января 2011 года, Вы можете получить, выбрав интересующий диапазон дат из раскрывающегося списка и нажав кнопку "Ввод!".


*Определитесь, кто Вы:
робот инопланетянин человек

Внимание! Время в таблицах - всемирное. Для получения местного времени необходимо прибавить поправку, которая равна 5.5 ч.

Смотрите также архив погоды в соседних городах и на ближайших метеорологических станциях:

Погода в Парадипе (Орисса, Индия) (54 км)
Погода в Баласоре (Орисса, Индия) (85 км)
Погода в Каттаке (Орисса, Индия) (90 км)
Погода в Бхубанешваре (Орисса, Индия) (111 км)
Погода в Диге (Западная Бенгалия, Индия) (123 км)
Погода в Барипаде (Орисса, Индия) (128 км)
Погода в Пури (Орисса, Индия) (145 км)
Погода в Контае (Западная Бенгалия, Индия) (153 км)
Погода в Кендуджхаре (Орисса, Индия) (156 км)
Погода в Ангуле (Орисса, Индия) (170 км)

Пояснения к столбцам:

Ветер - указаны скорость ветра в м/с - средняя за 10 мин, порывы в срок и между сроками (в фигурных скобках) и направление, откуда дует ветер: С - северный, СВ - северо-восточный, В - восточный, ЮВ - юго-восточный, Ю - южный, ЮЗ - юго-западный, З - западный, СЗ - северо-западный.
Видимость - горизонтальная дальность видимости в метрах или километрах. При видимости от 1 до 10 км при отсутствии осадков обычно наблюдается дымка, при ухудшении видимости до 1 км и менее - туман. В сухую погоду видимость может ухудшаться дымом, пылью или мглою.
Явления - указаны атмосферные явления, наблюдавшиеся в срок или в последний час перед сроком; фигурными скобками обозначены явления, наблюдавшиеся между сроками (за 1-3 часа до срока); квадратными скобками обозначены град или гололедные отложения с указанием их диаметра в мм.
Облачность - указаны через наклонную черту общая и нижняя облачность в баллах и высота нижней границы облаков в метрах; квадратными скобками обозначены формы облаков: Ci - перистые, Cs - перисто-слоистые, Cc - перисто-кучевые, Ac - высококучевые, As - высокослоистые, Sc - слоисто-кучевые, Ns - слоисто-дождевые, Cu - кучевые, Cb - кучево-дождевые. Подробнее классификацию облаков см. в Атласе облаков (PDF).
T - Температура воздуха - температура, измеренная на высоте 2 м над землей.
Td - Температура точки росы - температура, при понижении до которой содержащийся в воздухе водяной пар достигнет насыщения.
f - Относительная влажность воздуха - влажноcть воздуха, измеренная на высоте 2 м над землей.
Te - Эффективная температура - температура, которую ощущает одетый по сезону человек в тени. Характеристика душности погоды. При расчете учитывается влияние влажности воздуха и скорости ветра на теплоощущения человека.
Tes - Эффективная температура на солнце - температура, которую ощущает человек, с поправкой на солнечный нагрев. Характеристика знойности погоды. Зависит от высоты солнца над горизонтом, облачности и скорости ветра. Ночью, в пасмурную погоду, а также при ветре 12 м/с и более поправка равна нулю.
P - Атмосферное давление - приведенное к уровню моря атмосферное давление.
Po - Атмосферное давление - измеренное на уровне метеостанции атмосферное давление.
Tmin - Минимальная температура - минимум температуры воздуха на высоте 2 м над землей.
Tmax - Максимальная температура - максимум температуры воздуха на высоте 2 м над землей.
R - Количество осадков - Количество выпавших осадков за период времени, мм. При наведении курсора мыши на число - период времени, за который выпало указанное количество осадков.
R24 - Количество осадков - Количество выпавших осадков за 24 часа, мм.
S - Снежный покров - Высота снежного покрова, см. При наведении курсора мыши на число - состояние снежного покрова и степень покрытия местности в баллах.